Time,TemperatureF,DewpointF,PressureIn,WindDirection,WindDirectionDegrees,WindSpeedMPH,WindSpeedGustMPH,Humidity,HourlyPrecipIn,Conditions,Clouds,dailyrainin,SolarRadiationWatts/m^2,SoftwareType,DateUTC
2013-05-13 00:06:00,53.0,34.0,29.80,WNW,300,3.0,14.0,48,0.00,,,0.00,0,weatherlink.com 1.10,2013-05-13 04:06:00,
2013-05-13 00:21:00,52.7,34.0,29.80,WNW,286,4.0,17.0,49,0.00,,,0.00,0,weatherlink.com 1.10,2013-05-13 04:21:00,
2013-05-13 00:36:00,52.4,34.0,29.81,WNW,292,1.0,13.0,50,0.00,,,0.00,0,weatherlink.com 1.10,2013-05-13 04:36:00,
2013-05-13 00:51:00,51.9,34.0,29.82,West,279,2.0,14.0,51,0.00,,,0.00,0,weatherlink.com 1.10,2013-05-13 04:51:00,
2013-05-13 01:06:00,51.4,35.0,29.82,West,277,3.0,9.0,53,0.00,,,0.00,0,weatherlink.com 1.10,2013-05-13 05:06:00,
2013-05-13 01:21:00,51.0,35.0,29.82,West,272,4.0,10.0,55,0.00,,,0.00,0,weatherlink.com 1.10,2013-05-13 05:21:00,
2013-05-13 01:36:00,50.4,35.0,29.83,West,265,1.0,9.0,55,0.00,,,0.00,0,weatherlink.com 1.10,2013-05-13 05:36:00,
2013-05-13 01:51:00,49.9,35.0,29.83,West,262,3.0,6.0,56,0.00,,,0.00,0,weatherlink.com 1.10,2013-05-13 05:51:00,
2013-05-13 02:06:00,49.6,34.0,29.84,West,261,3.0,6.0,56,0.00,,,0.00,0,weatherlink.com 1.10,2013-05-13 06:06:00,
2013-05-13 02:21:00,49.3,34.0,29.84,West,261,3.0,8.0,56,0.00,,,0.00,0,weatherlink.com 1.10,2013-05-13 06:21:00,
2013-05-13 02:36:00,49.2,34.0,29.84,West,280,1.0,11.0,56,0.00,,,0.00,0,weatherlink.com 1.10,2013-05-13 06:36:00,
2013-05-13 02:51:00,49.0,34.0,29.84,West,271,3.0,9.0,57,0.00,,,0.00,0,weatherlink.com 1.10,2013-05-13 06:51:00,
2013-05-13 03:06:00,48.8,35.0,29.85,West,262,3.0,11.0,59,0.00,,,0.00,0,weatherlink.com 1.10,2013-05-13 07:06:00,
2013-05-13 03:21:00,48.7,34.0,29.85,West,270,4.0,12.0,58,0.00,,,0.00,0,weatherlink.com 1.10,2013-05-13 07:21:00,
2013-05-13 03:36:00,48.4,34.0,29.86,West,274,6.0,11.0,59,0.00,,,0.00,0,weatherlink.com 1.10,2013-05-13 07:36:00,
2013-05-13 03:51:00,48.0,35.0,29.85,West,268,3.0,7.0,60,0.00,,,0.00,0,weatherlink.com 1.10,2013-05-13 07:51:00,
2013-05-13 04:06:00,47.5,34.0,29.86,West,265,4.0,8.0,61,0.00,,,0.00,0,weatherlink.com 1.10,2013-05-13 08:06:00,
2013-05-13 04:21:00,47.4,33.0,29.86,West,272,12.0,19.0,58,0.00,,,0.00,0,weatherlink.com 1.10,2013-05-13 08:21:00,
2013-05-13 04:36:00,47.5,33.0,29.86,West,262,3.0,17.0,57,0.00,,,0.00,0,weatherlink.com 1.10,2013-05-13 08:36:00,
2013-05-13 04:51:00,47.4,33.0,29.88,WNW,285,7.0,13.0,57,0.00,,,0.00,0,weatherlink.com 1.10,2013-05-13 08:51:00,
2013-05-13 05:06:00,47.0,33.0,29.88,West,267,3.0,9.0,58,0.00,,,0.00,0,weatherlink.com 1.10,2013-05-13 09:06:00,
2013-05-13 05:22:00,46.7,32.0,29.89,West,268,2.0,9.0,58,0.00,,,0.00,0,weatherlink.com 1.10,2013-05-13 09:22:00,
2013-05-13 05:37:00,46.5,32.0,29.90,West,261,8.0,11.0,58,0.00,,,0.00,12,weatherlink.com 1.10,2013-05-13 09:37:00,
2013-05-13 05:52:00,46.6,32.0,29.90,WSW,254,5.0,9.0,58,0.00,,,0.00,18,weatherlink.com 1.10,2013-05-13 09:52:00,
2013-05-13 06:07:00,47.1,32.0,29.90,West,266,10.0,16.0,56,0.00,,,0.00,35,weatherlink.com 1.10,2013-05-13 10:07:00,
2013-05-13 06:22:00,47.8,33.0,29.91,WSW,257,2.0,10.0,57,0.00,,,0.00,76,weatherlink.com 1.10,2013-05-13 10:22:00,
2013-05-13 06:37:00,48.6,35.0,29.91,SW,227,6.0,10.0,59,0.00,,,0.00,160,weatherlink.com 1.10,2013-05-13 10:37:00,
2013-05-13 06:52:00,49.4,35.0,29.92,WSW,248,2.0,13.0,59,0.00,,,0.00,216,weatherlink.com 1.10,2013-05-13 10:52:00,
2013-05-13 07:07:00,49.5,35.0,29.92,WSW,242,5.0,12.0,58,0.00,,,0.00,255,weatherlink.com 1.10,2013-05-13 11:07:00,
2013-05-13 07:22:00,50.2,35.0,29.92,WSW,242,2.0,13.0,57,0.00,,,0.00,302,weatherlink.com 1.10,2013-05-13 11:22:00,
2013-05-13 07:37:00,51.9,36.0,29.93,WSW,254,6.0,10.0,54,0.00,,,0.00,353,weatherlink.com 1.10,2013-05-13 11:37:00,
2013-05-13 07:52:00,52.6,35.0,29.92,WSW,256,8.0,17.0,52,0.00,,,0.00,403,weatherlink.com 1.10,2013-05-13 11:52:00,
2013-05-13 08:07:00,52.7,34.0,29.93,West,277,8.0,16.0,50,0.00,,,0.00,448,weatherlink.com 1.10,2013-05-13 12:07:00,
2013-05-13 08:22:00,53.0,36.0,29.92,WNW,297,12.0,13.0,52,0.00,,,0.00,517,weatherlink.com 1.10,2013-05-13 12:22:00,
2013-05-13 08:37:00,54.0,34.0,29.93,West,269,3.0,18.0,48,0.00,,,0.00,550,weatherlink.com 1.10,2013-05-13 12:37:00,
2013-05-13 08:52:00,54.2,35.0,29.93,West,270,5.0,17.0,48,0.00,,,0.00,563,weatherlink.com 1.10,2013-05-13 12:52:00,
2013-05-13 09:07:00,54.3,35.0,29.93,West,261,12.0,15.0,48,0.00,,,0.00,633,weatherlink.com 1.10,2013-05-13 13:07:00,
2013-05-13 09:23:00,54.4,35.0,29.94,West,270,6.0,16.0,48,0.00,,,0.00,671,weatherlink.com 1.10,2013-05-13 13:23:00,
2013-05-13 09:38:00,55.6,37.0,29.93,West,260,5.0,19.0,50,0.00,,,0.00,700,weatherlink.com 1.10,2013-05-13 13:38:00,
2013-05-13 09:53:00,55.6,36.0,29.94,WNW,285,9.0,15.0,48,0.00,,,0.00,824,weatherlink.com 1.10,2013-05-13 13:53:00,
2013-05-13 10:08:00,55.5,35.0,29.95,WSW,246,12.0,18.0,47,0.00,,,0.00,803,weatherlink.com 1.10,2013-05-13 14:08:00,
2013-05-13 10:23:00,56.6,35.0,29.95,West,279,11.0,14.0,45,0.00,,,0.00,812,weatherlink.com 1.10,2013-05-13 14:23:00,
2013-05-13 10:38:00,55.1,35.0,29.95,WSW,250,7.0,18.0,47,0.00,,,0.00,937,weatherlink.com 1.10,2013-05-13 14:38:00,
2013-05-13 10:53:00,56.8,36.0,29.95,West,274,9.0,14.0,46,0.00,,,0.00,900,weatherlink.com 1.10,2013-05-13 14:53:00,
2013-05-13 11:08:00,58.4,35.0,29.95,WSW,252,7.0,16.0,41,0.00,,,0.00,956,weatherlink.com 1.10,2013-05-13 15:08:00,
2013-05-13 11:23:00,59.0,36.0,29.95,West,278,13.0,17.0,42,0.00,,,0.00,954,weatherlink.com 1.10,2013-05-13 15:23:00,
2013-05-13 11:38:00,59.5,37.0,29.95,WNW,300,0.0,14.0,43,0.00,,,0.00,944,weatherlink.com 1.10,2013-05-13 15:38:00,
2013-05-13 11:53:00,58.6,36.0,29.95,West,271,3.0,12.0,43,0.00,,,0.00,200,weatherlink.com 1.10,2013-05-13 15:53:00,
2013-05-13 12:08:00,57.9,35.0,29.95,West,265,5.0,15.0,42,0.00,,,0.00,969,weatherlink.com 1.10,2013-05-13 16:08:00,
2013-05-13 12:23:00,58.0,35.0,29.95,WNW,290,7.0,15.0,42,0.00,,,0.00,949,weatherlink.com 1.10,2013-05-13 16:23:00,
2013-05-13 12:38:00,58.9,34.0,29.94,WSW,248,14.0,15.0,40,0.00,,,0.00,963,weatherlink.com 1.10,2013-05-13 16:38:00,
2013-05-13 12:53:00,59.5,36.0,29.94,West,259,10.0,16.0,41,0.00,,,0.00,962,weatherlink.com 1.10,2013-05-13 16:53:00,
2013-05-13 13:08:00,59.6,36.0,29.94,West,278,6.0,13.0,41,0.00,,,0.00,953,weatherlink.com 1.10,2013-05-13 17:08:00,
2013-05-13 13:23:00,60.0,35.0,29.94,WNW,291,4.0,17.0,39,0.00,,,0.00,954,weatherlink.com 1.10,2013-05-13 17:23:00,
2013-05-13 13:38:00,59.9,35.0,29.94,West,273,5.0,15.0,39,0.00,,,0.00,935,weatherlink.com 1.10,2013-05-13 17:38:00,
2013-05-13 13:53:00,59.7,36.0,29.94,WSW,241,10.0,19.0,41,0.00,,,0.00,369,weatherlink.com 1.10,2013-05-13 17:53:00,
2013-05-13 14:08:00,60.8,35.0,29.94,West,279,4.0,18.0,38,0.00,,,0.00,130,weatherlink.com 1.10,2013-05-13 18:08:00,
2013-05-13 14:23:00,61.0,34.0,29.93,WNW,290,8.0,17.0,36,0.00,,,0.00,79,weatherlink.com 1.10,2013-05-13 18:23:00,
2013-05-13 14:38:00,60.5,36.0,29.93,West,273,10.0,16.0,41,0.00,,,0.00,65,weatherlink.com 1.10,2013-05-13 18:38:00,
2013-05-13 14:53:00,59.8,33.0,29.93,WSW,252,13.0,21.0,36,0.00,,,0.00,116,weatherlink.com 1.10,2013-05-13 18:53:00,
2013-05-13 15:08:00,60.4,33.0,29.92,WSW,248,12.0,18.0,36,0.00,,,0.00,118,weatherlink.com 1.10,2013-05-13 19:08:00,
2013-05-13 15:23:00,60.6,33.0,29.92,WSW,246,4.0,17.0,36,0.00,,,0.00,118,weatherlink.com 1.10,2013-05-13 19:23:00,
2013-05-13 15:38:00,60.5,33.0,29.91,West,267,12.0,19.0,36,0.00,,,0.00,63,weatherlink.com 1.10,2013-05-13 19:38:00,
2013-05-13 15:53:00,59.3,33.0,29.92,WNW,284,3.0,16.0,37,0.00,,,0.00,118,weatherlink.com 1.10,2013-05-13 19:53:00,
2013-05-13 16:08:00,59.1,32.0,29.91,WNW,289,8.0,11.0,36,0.00,,,0.00,130,weatherlink.com 1.10,2013-05-13 20:08:00,
2013-05-13 16:23:00,60.4,33.0,29.91,WNW,297,6.0,14.0,36,0.00,,,0.00,76,weatherlink.com 1.10,2013-05-13 20:23:00,
2013-05-13 16:38:00,59.9,32.0,29.91,NW,305,3.0,12.0,35,0.00,,,0.00,69,weatherlink.com 1.10,2013-05-13 20:38:00,
2013-05-13 16:53:00,58.9,33.0,29.91,NW,309,6.0,16.0,38,0.00,,,0.00,83,weatherlink.com 1.10,2013-05-13 20:53:00,
2013-05-13 17:08:00,59.1,33.0,29.91,West,265,9.0,17.0,37,0.00,,,0.00,67,weatherlink.com 1.10,2013-05-13 21:08:00,
2013-05-13 17:23:00,58.5,31.0,29.91,West,275,5.0,14.0,36,0.00,,,0.00,63,weatherlink.com 1.10,2013-05-13 21:23:00,
2013-05-13 17:38:00,58.5,31.0,29.91,NW,321,7.0,16.0,36,0.00,,,0.00,60,weatherlink.com 1.10,2013-05-13 21:38:00,
2013-05-13 17:53:00,57.8,31.0,29.92,NW,309,6.0,13.0,37,0.00,,,0.00,46,weatherlink.com 1.10,2013-05-13 21:53:00,
2013-05-13 18:08:00,57.4,31.0,29.92,NNW,341,11.0,15.0,37,0.00,,,0.00,49,weatherlink.com 1.10,2013-05-13 22:08:00,
2013-05-13 18:23:00,57.3,31.0,29.91,NW,306,6.0,14.0,37,0.00,,,0.00,62,weatherlink.com 1.10,2013-05-13 22:23:00,
2013-05-13 18:38:00,56.6,30.0,29.92,NW,317,6.0,13.0,37,0.00,,,0.00,49,weatherlink.com 1.10,2013-05-13 22:38:00,
2013-05-13 18:53:00,56.3,30.0,29.93,WNW,297,7.0,14.0,37,0.00,,,0.00,28,weatherlink.com 1.10,2013-05-13 22:53:00,
2013-05-13 19:08:00,55.6,31.0,29.94,NW,323,10.0,16.0,39,0.00,,,0.00,21,weatherlink.com 1.10,2013-05-13 23:08:00,
2013-05-13 19:23:00,54.6,30.0,29.95,WNW,295,8.0,17.0,39,0.00,,,0.00,18,weatherlink.com 1.10,2013-05-13 23:23:00,
2013-05-13 19:38:00,53.8,30.0,29.96,WNW,296,6.0,15.0,41,0.00,,,0.00,16,weatherlink.com 1.10,2013-05-13 23:38:00,
2013-05-13 19:54:00,53.1,30.0,29.97,NW,323,13.0,15.0,42,0.00,,,0.00,5,weatherlink.com 1.10,2013-05-13 23:54:00,
2013-05-13 20:08:00,52.6,30.0,29.98,NW,321,3.0,14.0,42,0.00,,,0.00,0,weatherlink.com 1.10,2013-05-14 00:08:00,
2013-05-13 20:23:00,52.2,30.0,29.99,WNW,290,5.0,11.0,43,0.00,,,0.00,0,weatherlink.com 1.10,2013-05-14 00:23:00,
2013-05-13 20:38:00,51.9,30.0,29.99,NNW,331,2.0,15.0,43,0.00,,,0.00,0,weatherlink.com 1.10,2013-05-14 00:38:00,
2013-05-13 20:53:00,51.5,30.0,29.99,NW,306,8.0,15.0,44,0.00,,,0.00,0,weatherlink.com 1.10,2013-05-14 00:53:00,
2013-05-13 21:08:00,50.9,29.0,30.00,NW,305,6.0,13.0,44,0.00,,,0.00,0,weatherlink.com 1.10,2013-05-14 01:08:00,
2013-05-13 21:24:00,50.5,30.0,30.00,NW,308,2.0,11.0,45,0.00,,,0.00,0,weatherlink.com 1.10,2013-05-14 01:24:00,
2013-05-13 21:39:00,50.1,29.0,30.01,WNW,297,4.0,12.0,45,0.00,,,0.00,0,weatherlink.com 1.10,2013-05-14 01:39:00,
2013-05-13 21:54:00,50.0,30.0,30.01,NW,325,0.0,9.0,46,0.00,,,0.00,0,weatherlink.com 1.10,2013-05-14 01:54:00,
2013-05-13 22:09:00,50.0,30.0,30.01,NW,323,4.0,9.0,46,0.00,,,0.00,0,weatherlink.com 1.10,2013-05-14 02:09:00,
2013-05-13 22:24:00,49.8,30.0,30.02,NW,312,1.0,12.0,47,0.00,,,0.00,0,weatherlink.com 1.10,2013-05-14 02:24:00,
2013-05-13 22:39:00,49.6,30.0,30.01,WNW,302,2.0,9.0,48,0.00,,,0.00,0,weatherlink.com 1.10,2013-05-14 02:39:00,
2013-05-13 22:54:00,49.5,30.0,30.01,NW,305,7.0,9.0,48,0.00,,,0.00,0,weatherlink.com 1.10,2013-05-14 02:54:00,
2013-05-13 23:09:00,49.4,31.0,30.01,NW,317,0.0,14.0,49,0.00,,,0.00,0,weatherlink.com 1.10,2013-05-14 03:09:00,
2013-05-13 23:24:00,49.4,31.0,30.01,NW,317,3.0,9.0,50,0.00,,,0.00,0,weatherlink.com 1.10,2013-05-14 03:24:00,
2013-05-13 23:39:00,49.1,31.0,30.01,NW,312,2.0,10.0,51,0.00,,,0.00,0,weatherlink.com 1.10,2013-05-14 03:39:00,
2013-05-13 23:54:00,48.9,32.0,30.00,NW,315,2.0,8.0,53,0.00,,,0.00,0,weatherlink.com 1.10,2013-05-14 03:54:00,